This is the latest recevied weather packets stored in our database for station/object KC4JIR. If no packets are shown the sender has not sent any weather packets the latest 10 day(s).
| Time | Temp. | Humidity | Pressure | Rain* | Wind** | Luminosity | Snow |
|---|---|---|---|---|---|---|---|
| 1777666752 | 21.67° C | 67% | 1010 hPa | 0 mm | - | 144 W/m² | - |
| 1777666449 | 21.67° C | 67% | 1010.2 hPa | 0 mm | - | 144 W/m² | - |
| 1777666146 | 21.67° C | 67% | 1010.3 hPa | 0 mm | - | 144 W/m² | - |
| 1777665843 | 21.67° C | 65% | 1010.4 hPa | 0 mm | - | 145 W/m² | - |
| 1777665541 | 21.67° C | 64% | 1010.6 hPa | 0 mm | - | 166 W/m² | - |
| 1777665236 | 21.67° C | 62% | 1010.4 hPa | 0 mm | - | 145 W/m² | - |
| 1777664933 | 22.22° C | 62% | 1010.5 hPa | 0 mm | - | 153 W/m² | - |
| 1777664629 | 22.22° C | 66% | 1010.7 hPa | 0 mm | - | 170 W/m² | - |
| 1777664325 | 21.67° C | 64% | 1010.5 hPa | 0 mm | - | 225 W/m² | - |
| 1777664024 | 21.67° C | 62% | 1010.7 hPa | 0 mm | - | 210 W/m² | - |
| 1777663721 | 22.22° C | 63% | 1010.8 hPa | 0 mm | - | 242 W/m² | - |
| 1777663418 | 22.22° C | 62% | 1010.8 hPa | 0 mm | - | 260 W/m² | - |
| 1777663115 | 22.22° C | 63% | 1010.8 hPa | 0 mm | - | 239 W/m² | - |
| 1777662509 | 21.67° C | 64% | 1010.9 hPa | 0 mm | - | 276 W/m² | - |
| 1777662205 | 21.67° C | 64% | 1010.6 hPa | 0 mm | - | 276 W/m² | - |
| 1777661900 | 21.67° C | 65% | 1010.6 hPa | 0 mm | - | 297 W/m² | - |
| 1777661596 | 22.22° C | 64% | 1010.6 hPa | 0 mm | - | 247 W/m² | - |
| 1777661292 | 22.22° C | 64% | 1011 hPa | 0 mm | - | 246 W/m² | - |
| 1777660988 | 21.67° C | 63% | 1010.9 hPa | 0 mm | - | 350 W/m² | - |
| 1777659465 | 21.67° C | 63% | 1010.8 hPa | 0 mm | - | 272 W/m² | - |
| 1777659163 | 21.67° C | 63% | 1011.1 hPa | 0 mm | - | 272 W/m² | - |
| 1777658861 | 22.22° C | 66% | 1010.8 hPa | 0 mm | - | 323 W/m² | - |
| 1777658556 | 22.22° C | 66% | 1010.9 hPa | 0 mm | - | 323 W/m² | - |
| 1777658253 | 21.11° C | 65% | 1011 hPa | 0 mm | - | 337 W/m² | - |
| 1777657951 | 21.11° C | 65% | 1010.9 hPa | 0 mm | - | 337 W/m² | - |
* Rain latest hour (hover to see other rain measurements)
** Current wind speed in m/s (hover to see current wind gust speed)